contact:dominique.lefevre@mio.osupytheas.fr, maurice.libes@osupytheas.fr, didier.mallarino@osupytheas.fr
Project:EMSO http://www.emso-fr.org/EMSO-France
Depth: 2436.0 m
Title:EMSO Ligure Ouest : Data MII capteur MICROCAT
DateTime_Computer,Latitude,Longitude,Temperature,Conductivity,Pressure,DateTime_Instrument
DateTime_Computer,Latitude,Longitude,degC,S m-1,dbar,DateTime_Instrument
2022-01-17T00:02:09Z,42.805,6.029,13.3004,4.60027,2470.25,2022-1-17T02:03:40Z
2022-01-17T00:05:12Z,42.805,6.029,13.3001,4.60029,2470.264,2022-1-17T02:06:43Z
2022-01-17T00:08:15Z,42.805,6.029,13.3001,4.60028,2470.236,2022-1-17T02:09:46Z
2022-01-17T00:11:18Z,42.805,6.029,13.3000,4.60027,2470.24,2022-1-17T02:12:49Z
2022-01-17T00:14:21Z,42.805,6.029,13.3004,4.60028,2470.24,2022-1-17T02:15:53Z
2022-01-17T00:17:25Z,42.805,6.029,13.3003,4.60026,2470.24,2022-1-17T02:18:56Z
2022-01-17T00:20:28Z,42.805,6.029,13.3004,4.60027,2470.227,2022-1-17T02:21:59Z
2022-01-17T00:23:31Z,42.805,6.029,13.3004,4.60029,2470.217,2022-1-17T02:25:02Z
2022-01-17T00:26:34Z,42.805,6.029,13.2999,4.60029,2470.24,2022-1-17T02:28:05Z
2022-01-17T00:29:37Z,42.805,6.029,13.3003,4.60027,2470.227,2022-1-17T02:31:08Z
2022-01-17T00:32:40Z,42.805,6.029,13.3001,4.60028,2470.203,2022-1-17T02:34:11Z
2022-01-17T00:35:43Z,42.805,6.029,13.3007,4.60026,2470.227,2022-1-17T02:37:14Z
2022-01-17T00:38:46Z,42.805,6.029,13.3000,4.60028,2470.264,2022-1-17T02:40:18Z
2022-01-17T00:41:50Z,42.805,6.029,13.3004,4.60029,2470.24,2022-1-17T02:43:21Z
2022-01-17T00:44:53Z,42.805,6.029,13.3005,4.60027,2470.227,2022-1-17T02:46:24Z
2022-01-17T00:47:56Z,42.805,6.029,13.2999,4.60028,2470.227,2022-1-17T02:49:27Z
2022-01-17T00:50:59Z,42.805,6.029,13.2999,4.60027,2470.227,2022-1-17T02:52:30Z
2022-01-17T00:54:02Z,42.805,6.029,13.3000,4.60027,2470.227,2022-1-17T02:55:33Z
2022-01-17T00:57:05Z,42.805,6.029,13.3002,4.60026,2470.227,2022-1-17T02:58:36Z
2022-01-17T01:00:08Z,42.805,6.029,13.3003,4.60027,2470.203,2022-1-17T03:01:39Z
2022-01-17T01:03:11Z,42.805,6.029,13.2996,4.60027,2470.227,2022-1-17T03:04:42Z
2022-01-17T01:06:14Z,42.805,6.029,13.3000,4.60026,2470.24,2022-1-17T03:07:46Z
2022-01-17T01:09:18Z,42.805,6.029,13.3005,4.60029,2470.217,2022-1-17T03:10:49Z
2022-01-17T01:12:21Z,42.805,6.029,13.2998,4.60031,2470.227,2022-1-17T03:13:52Z
2022-01-17T01:15:24Z,42.805,6.029,13.3002,4.60029,2470.203,2022-1-17T03:16:55Z
2022-01-17T01:18:27Z,42.805,6.029,13.3003,4.60029,2470.273,2022-1-17T03:19:58Z
2022-01-17T01:21:30Z,42.805,6.029,13.3000,4.60028,2470.203,2022-1-17T03:23:01Z
2022-01-17T01:24:33Z,42.805,6.029,13.3001,4.60029,2470.264,2022-1-17T03:26:04Z
2022-01-17T01:27:36Z,42.805,6.029,13.2998,4.60028,2470.264,2022-1-17T03:29:07Z
2022-01-17T01:30:39Z,42.805,6.029,13.3001,4.60027,2470.203,2022-1-17T03:32:11Z
2022-01-17T01:33:43Z,42.805,6.029,13.3000,4.60028,2470.217,2022-1-17T03:35:14Z
2022-01-17T01:36:46Z,42.805,6.029,13.2999,4.60029,2470.24,2022-1-17T03:38:17Z
2022-01-17T01:39:49Z,42.805,6.029,13.3000,4.60026,2470.203,2022-1-17T03:41:20Z
2022-01-17T01:42:52Z,42.805,6.029,13.3000,4.60029,2470.297,2022-1-17T03:44:23Z
2022-01-17T01:45:55Z,42.805,6.029,13.3006,4.60028,2470.227,2022-1-17T03:47:26Z
2022-01-17T01:48:58Z,42.805,6.029,13.3000,4.60027,2470.227,2022-1-17T03:50:29Z
2022-01-17T01:52:01Z,42.805,6.029,13.3001,4.60027,2470.227,2022-1-17T03:53:32Z
2022-01-17T01:55:04Z,42.805,6.029,13.3004,4.60027,2470.227,2022-1-17T03:56:36Z
2022-01-17T01:58:08Z,42.805,6.029,13.3001,4.60027,2470.25,2022-1-17T03:59:39Z
2022-01-17T02:01:11Z,42.805,6.029,13.3004,4.60029,2470.227,2022-1-17T04:02:42Z
2022-01-17T02:04:14Z,42.805,6.029,13.3002,4.60027,2470.227,2022-1-17T04:05:45Z
2022-01-17T02:07:17Z,42.805,6.029,13.3000,4.60027,2470.227,2022-1-17T04:08:48Z
2022-01-17T02:10:20Z,42.805,6.029,13.3000,4.60029,2470.273,2022-1-17T04:11:51Z
2022-01-17T02:13:23Z,42.805,6.029,13.3000,4.60027,2470.227,2022-1-17T04:14:54Z
2022-01-17T02:16:26Z,42.805,6.029,13.2996,4.60027,2470.25,2022-1-17T04:17:57Z
2022-01-17T02:19:29Z,42.805,6.029,13.3001,4.60026,2470.25,2022-1-17T04:21:01Z
2022-01-17T02:22:33Z,42.805,6.029,13.3003,4.60029,2470.273,2022-1-17T04:24:04Z
2022-01-17T02:25:36Z,42.805,6.029,13.3002,4.60026,2470.273,2022-1-17T04:27:07Z
2022-01-17T02:28:39Z,42.805,6.029,13.3001,4.60029,2470.297,2022-1-17T04:30:10Z
2022-01-17T02:31:42Z,42.805,6.029,13.3004,4.60027,2470.264,2022-1-17T04:33:13Z
2022-01-17T02:34:45Z,42.805,6.029,13.3000,4.60026,2470.25,2022-1-17T04:36:16Z
2022-01-17T02:37:48Z,42.805,6.029,13.3000,4.60027,2470.264,2022-1-17T04:39:19Z
2022-01-17T02:40:51Z,42.805,6.029,13.3001,4.60028,2470.25,2022-1-17T04:42:22Z
2022-01-17T02:43:54Z,42.805,6.029,13.2999,4.60027,2470.273,2022-1-17T04:45:26Z
2022-01-17T02:46:58Z,42.805,6.029,13.3006,4.60028,2470.227,2022-1-17T04:48:29Z
2022-01-17T02:50:01Z,42.805,6.029,13.3007,4.60029,2470.273,2022-1-17T04:51:32Z
2022-01-17T02:53:04Z,42.805,6.029,13.3004,4.60027,2470.273,2022-1-17T04:54:35Z
2022-01-17T02:56:07Z,42.805,6.029,13.3002,4.60028,2470.273,2022-1-17T04:57:38Z
2022-01-17T02:59:10Z,42.805,6.029,13.3000,4.60026,2470.31,2022-1-17T05:00:41Z
2022-01-17T03:02:13Z,42.805,6.029,13.3003,4.60026,2470.273,2022-1-17T05:03:44Z
2022-01-17T03:05:16Z,42.805,6.029,13.3001,4.60027,2470.297,2022-1-17T05:06:47Z
2022-01-17T03:08:19Z,42.805,6.029,13.3005,4.60028,2470.287,2022-1-17T05:09:51Z
2022-01-17T03:11:23Z,42.805,6.029,13.3001,4.60028,2470.31,2022-1-17T05:12:54Z
2022-01-17T03:14:26Z,42.805,6.029,13.2999,4.60028,2470.297,2022-1-17T05:15:57Z
2022-01-17T03:17:29Z,42.805,6.029,13.3004,4.60026,2470.297,2022-1-17T05:19:00Z
2022-01-17T03:20:32Z,42.805,6.029,13.3006,4.60028,2470.31,2022-1-17T05:22:03Z
2022-01-17T03:23:35Z,42.805,6.029,13.3000,4.60028,2470.297,2022-1-17T05:25:06Z
2022-01-17T03:26:38Z,42.805,6.029,13.3002,4.60028,2470.297,2022-1-17T05:28:09Z
2022-01-17T03:29:41Z,42.805,6.029,13.2998,4.60028,2470.297,2022-1-17T05:31:12Z
2022-01-17T03:32:44Z,42.805,6.029,13.2999,4.60027,2470.31,2022-1-17T05:34:16Z
2022-01-17T03:35:48Z,42.805,6.029,13.3004,4.60029,2470.297,2022-1-17T05:37:19Z
2022-01-17T03:38:51Z,42.805,6.029,13.3002,4.60027,2470.32,2022-1-17T05:40:22Z
2022-01-17T03:41:54Z,42.805,6.029,13.3001,4.60026,2470.343,2022-1-17T05:43:25Z
2022-01-17T03:44:57Z,42.805,6.029,13.3004,4.60029,2470.366,2022-1-17T05:46:28Z
2022-01-17T03:48:00Z,42.805,6.029,13.2998,4.60027,2470.32,2022-1-17T05:49:31Z
2022-01-17T03:51:03Z,42.805,6.029,13.3000,4.60028,2470.366,2022-1-17T05:52:34Z
2022-01-17T03:54:06Z,42.805,6.029,13.2999,4.60028,2470.32,2022-1-17T05:55:37Z
2022-01-17T03:57:09Z,42.805,6.029,13.3003,4.60027,2470.366,2022-1-17T05:58:41Z
2022-01-17T04:00:13Z,42.805,6.029,13.2998,4.60026,2470.32,2022-1-17T06:01:44Z
2022-01-17T04:03:16Z,42.805,6.029,13.2999,4.60026,2470.343,2022-1-17T06:04:47Z
2022-01-17T04:06:19Z,42.805,6.029,13.3000,4.60026,2470.343,2022-1-17T06:07:50Z
2022-01-17T04:09:22Z,42.805,6.029,13.2998,4.60026,2470.366,2022-1-17T06:10:53Z
2022-01-17T04:12:25Z,42.805,6.029,13.3001,4.60030,2470.366,2022-1-17T06:13:56Z
2022-01-17T04:15:28Z,42.805,6.029,13.3000,4.60027,2470.343,2022-1-17T06:16:59Z
2022-01-17T04:18:31Z,42.805,6.029,13.3003,4.60026,2470.366,2022-1-17T06:20:02Z
2022-01-17T04:21:34Z,42.805,6.029,13.3000,4.60028,2470.366,2022-1-17T06:23:06Z
2022-01-17T04:24:37Z,42.805,6.029,13.2999,4.60028,2470.39,2022-1-17T06:26:09Z
2022-01-17T04:27:41Z,42.805,6.029,13.3000,4.60027,2470.366,2022-1-17T06:29:12Z
2022-01-17T04:30:44Z,42.805,6.029,13.3003,4.60027,2470.366,2022-1-17T06:32:15Z
2022-01-17T04:33:47Z,42.805,6.029,13.3006,4.60028,2470.404,2022-1-17T06:35:18Z
2022-01-17T04:36:50Z,42.805,6.029,13.3001,4.60026,2470.366,2022-1-17T06:38:21Z
2022-01-17T04:39:53Z,42.805,6.029,13.2997,4.60026,2470.39,2022-1-17T06:41:24Z
2022-01-17T04:42:56Z,42.805,6.029,13.3003,4.60027,2470.366,2022-1-17T06:44:27Z
2022-01-17T04:45:59Z,42.805,6.029,13.3002,4.60027,2470.366,2022-1-17T06:47:31Z
2022-01-17T04:49:02Z,42.805,6.029,13.3000,4.60027,2470.39,2022-1-17T06:50:34Z
2022-01-17T04:52:06Z,42.805,6.029,13.3003,4.60028,2470.413,2022-1-17T06:53:37Z
2022-01-17T04:55:09Z,42.805,6.029,13.2998,4.60027,2470.404,2022-1-17T06:56:40Z
2022-01-17T04:58:12Z,42.805,6.029,13.2999,4.60028,2470.413,2022-1-17T06:59:43Z
2022-01-17T05:01:15Z,42.805,6.029,13.3001,4.60028,2470.427,2022-1-17T07:02:46Z
2022-01-17T05:04:18Z,42.805,6.029,13.3003,4.60027,2470.39,2022-1-17T07:05:49Z
2022-01-17T05:07:21Z,42.805,6.029,13.3001,4.60026,2470.39,2022-1-17T07:08:52Z
2022-01-17T05:10:24Z,42.805,6.029,13.3001,4.60027,2470.404,2022-1-17T07:11:55Z
2022-01-17T05:13:27Z,42.805,6.029,13.2998,4.60026,2470.39,2022-1-17T07:14:59Z
2022-01-17T05:16:31Z,42.805,6.029,13.3000,4.60027,2470.427,2022-1-17T07:18:02Z
2022-01-17T05:19:34Z,42.805,6.029,13.2999,4.60026,2470.39,2022-1-17T07:21:05Z
2022-01-17T05:22:37Z,42.805,6.029,13.3003,4.60028,2470.413,2022-1-17T07:24:08Z
2022-01-17T05:25:40Z,42.805,6.029,13.3003,4.60027,2470.413,2022-1-17T07:27:11Z
2022-01-17T05:28:43Z,42.805,6.029,13.3000,4.60026,2470.437,2022-1-17T07:30:14Z
2022-01-17T05:31:46Z,42.805,6.029,13.2999,4.60027,2470.437,2022-1-17T07:33:17Z
2022-01-17T05:34:49Z,42.805,6.029,13.3000,4.60026,2470.474,2022-1-17T07:36:20Z
2022-01-17T05:37:52Z,42.805,6.029,13.3000,4.60028,2470.46,2022-1-17T07:39:24Z
2022-01-17T05:40:56Z,42.805,6.029,13.3003,4.60027,2470.437,2022-1-17T07:42:27Z
2022-01-17T05:43:59Z,42.805,6.029,13.2998,4.60029,2470.413,2022-1-17T07:45:30Z
2022-01-17T05:47:02Z,42.805,6.029,13.3001,4.60027,2470.474,2022-1-17T07:48:33Z
2022-01-17T05:50:05Z,42.805,6.029,13.3000,4.60028,2470.45,2022-1-17T07:51:36Z
2022-01-17T05:53:08Z,42.805,6.029,13.3003,4.60027,2470.483,2022-1-17T07:54:39Z
2022-01-17T05:56:11Z,42.805,6.029,13.3005,4.60026,2470.483,2022-1-17T07:57:42Z
2022-01-17T05:59:14Z,42.805,6.029,13.3005,4.60026,2470.497,2022-1-17T08:00:45Z
2022-01-17T06:02:17Z,42.805,6.029,13.3001,4.60026,2470.437,2022-1-17T08:03:49Z
2022-01-17T06:05:21Z,42.805,6.029,13.2998,4.60027,2470.46,2022-1-17T08:06:52Z
2022-01-17T06:08:24Z,42.805,6.029,13.2998,4.60028,2470.474,2022-1-17T08:09:55Z
2022-01-17T06:11:27Z,42.805,6.029,13.3000,4.60026,2470.474,2022-1-17T08:12:58Z
2022-01-17T06:14:30Z,42.805,6.029,13.3003,4.60027,2470.46,2022-1-17T08:16:01Z
2022-01-17T06:17:33Z,42.805,6.029,13.3003,4.60026,2470.52,2022-1-17T08:19:04Z
2022-01-17T06:20:36Z,42.805,6.029,13.3003,4.60027,2470.497,2022-1-17T08:22:07Z
2022-01-17T06:23:39Z,42.805,6.029,13.3003,4.60026,2470.497,2022-1-17T08:25:10Z
2022-01-17T06:26:42Z,42.805,6.029,13.2998,4.60027,2470.46,2022-1-17T08:28:14Z
2022-01-17T06:29:46Z,42.805,6.029,13.2999,4.60027,2470.474,2022-1-17T08:31:17Z
2022-01-17T06:32:49Z,42.805,6.029,13.2998,4.60026,2470.474,2022-1-17T08:34:20Z
2022-01-17T06:35:52Z,42.805,6.029,13.3000,4.60027,2470.46,2022-1-17T08:37:23Z
2022-01-17T06:38:55Z,42.805,6.029,13.2998,4.60028,2470.507,2022-1-17T08:40:26Z
2022-01-17T06:41:58Z,42.805,6.029,13.2998,4.60029,2470.483,2022-1-17T08:43:29Z
2022-01-17T06:45:01Z,42.805,6.029,13.3000,4.60028,2470.483,2022-1-17T08:46:32Z
2022-01-17T06:48:04Z,42.805,6.029,13.3005,4.60028,2470.497,2022-1-17T08:49:35Z
2022-01-17T06:51:07Z,42.805,6.029,13.3000,4.60028,2470.497,2022-1-17T08:52:39Z
2022-01-17T06:54:11Z,42.805,6.029,13.3004,4.60028,2470.483,2022-1-17T08:55:42Z
2022-01-17T06:57:14Z,42.805,6.029,13.3001,4.60029,2470.507,2022-1-17T08:58:45Z
2022-01-17T07:00:17Z,42.805,6.029,13.3002,4.60029,2470.53,2022-1-17T09:01:48Z
2022-01-17T07:03:20Z,42.805,6.029,13.3001,4.60027,2470.45,2022-1-17T09:04:51Z
2022-01-17T07:06:23Z,42.805,6.029,13.3004,4.60028,2470.483,2022-1-17T09:07:54Z
2022-01-17T07:09:26Z,42.805,6.029,13.3002,4.60026,2470.497,2022-1-17T09:10:57Z
2022-01-17T07:12:29Z,42.805,6.029,13.3000,4.60027,2470.483,2022-1-17T09:14:00Z
2022-01-17T07:15:32Z,42.805,6.029,13.3002,4.60026,2470.507,2022-1-17T09:17:04Z
2022-01-17T07:18:35Z,42.805,6.029,13.2998,4.60027,2470.544,2022-1-17T09:20:07Z
2022-01-17T07:21:39Z,42.805,6.029,13.3000,4.60026,2470.483,2022-1-17T09:23:10Z
2022-01-17T07:24:42Z,42.805,6.029,13.3000,4.60028,2470.52,2022-1-17T09:26:13Z
2022-01-17T07:27:45Z,42.805,6.029,13.3002,4.60027,2470.483,2022-1-17T09:29:16Z
2022-01-17T07:30:48Z,42.805,6.029,13.3002,4.60028,2470.493,2022-1-17T09:32:19Z
2022-01-17T07:33:51Z,42.805,6.029,13.3000,4.60029,2470.507,2022-1-17T09:35:22Z
2022-01-17T07:36:54Z,42.805,6.029,13.3000,4.60029,2470.52,2022-1-17T09:38:25Z
2022-01-17T07:39:57Z,42.805,6.029,13.3002,4.60031,2470.544,2022-1-17T09:41:29Z
2022-01-17T07:43:00Z,42.805,6.029,13.3000,4.60029,2470.53,2022-1-17T09:44:32Z
2022-01-17T07:46:04Z,42.805,6.029,13.3003,4.60028,2470.497,2022-1-17T09:47:35Z
2022-01-17T07:49:07Z,42.805,6.029,13.3003,4.60029,2470.507,2022-1-17T09:50:38Z
2022-01-17T07:52:10Z,42.805,6.029,13.3004,4.60029,2470.52,2022-1-17T09:53:41Z
2022-01-17T07:55:13Z,42.805,6.029,13.3006,4.60031,2470.544,2022-1-17T09:56:44Z
2022-01-17T07:58:16Z,42.805,6.029,13.3003,4.60031,2470.507,2022-1-17T09:59:47Z
2022-01-17T08:01:19Z,42.805,6.029,13.3011,4.60032,2470.507,2022-1-17T10:02:50Z
2022-01-17T08:04:22Z,42.805,6.029,13.3006,4.60033,2470.544,2022-1-17T10:05:54Z
2022-01-17T08:07:25Z,42.805,6.029,13.3004,4.60032,2470.52,2022-1-17T10:08:57Z
2022-01-17T08:10:29Z,42.805,6.029,13.3006,4.60033,2470.507,2022-1-17T10:12:00Z
2022-01-17T08:13:32Z,42.805,6.029,13.3004,4.60031,2470.497,2022-1-17T10:15:03Z
2022-01-17T08:16:35Z,42.805,6.029,13.3009,4.60032,2470.507,2022-1-17T10:18:06Z
2022-01-17T08:19:38Z,42.805,6.029,13.3001,4.60031,2470.507,2022-1-17T10:21:09Z
2022-01-17T08:22:41Z,42.805,6.029,13.3004,4.60033,2470.52,2022-1-17T10:24:12Z
2022-01-17T08:25:44Z,42.805,6.029,13.3006,4.60032,2470.507,2022-1-17T10:27:15Z
2022-01-17T08:28:47Z,42.805,6.029,13.3008,4.60031,2470.497,2022-1-17T10:30:19Z
2022-01-17T08:31:51Z,42.805,6.029,13.3006,4.60032,2470.497,2022-1-17T10:33:22Z
2022-01-17T08:34:54Z,42.805,6.029,13.3004,4.60033,2470.507,2022-1-17T10:36:25Z
2022-01-17T08:37:57Z,42.805,6.029,13.3004,4.60029,2470.544,2022-1-17T10:39:28Z
2022-01-17T08:41:00Z,42.805,6.029,13.3002,4.60031,2470.53,2022-1-17T10:42:31Z
2022-01-17T08:44:03Z,42.805,6.029,13.3006,4.60029,2470.53,2022-1-17T10:45:34Z
2022-01-17T08:47:06Z,42.805,6.029,13.3002,4.60031,2470.507,2022-1-17T10:48:37Z
2022-01-17T08:50:09Z,42.805,6.029,13.3001,4.60028,2470.52,2022-1-17T10:51:40Z
2022-01-17T08:53:12Z,42.805,6.029,13.3003,4.60029,2470.53,2022-1-17T10:54:44Z
2022-01-17T08:56:16Z,42.805,6.029,13.3002,4.60028,2470.483,2022-1-17T10:57:47Z
2022-01-17T08:59:19Z,42.805,6.029,13.3000,4.60028,2470.483,2022-1-17T11:00:50Z
2022-01-17T09:02:22Z,42.805,6.029,13.3006,4.60029,2470.497,2022-1-17T11:03:53Z
2022-01-17T09:05:25Z,42.805,6.029,13.2999,4.60029,2470.497,2022-1-17T11:06:56Z
2022-01-17T09:08:28Z,42.805,6.029,13.2998,4.60029,2470.544,2022-1-17T11:09:59Z
2022-01-17T09:11:31Z,42.805,6.029,13.3002,4.60029,2470.53,2022-1-17T11:13:02Z
2022-01-17T09:14:34Z,42.805,6.029,13.3002,4.60028,2470.53,2022-1-17T11:16:05Z
2022-01-17T09:17:37Z,42.805,6.029,13.3000,4.60029,2470.507,2022-1-17T11:19:09Z
2022-01-17T09:20:41Z,42.805,6.029,13.3003,4.60029,2470.497,2022-1-17T11:22:12Z
2022-01-17T09:23:44Z,42.805,6.029,13.3003,4.60031,2470.507,2022-1-17T11:25:15Z
2022-01-17T09:26:47Z,42.805,6.029,13.3004,4.60030,2470.52,2022-1-17T11:28:18Z
2022-01-17T09:29:50Z,42.805,6.029,13.3002,4.60029,2470.46,2022-1-17T11:31:21Z
2022-01-17T09:32:53Z,42.805,6.029,13.3001,4.60029,2470.46,2022-1-17T11:34:24Z
2022-01-17T09:35:56Z,42.805,6.029,13.3001,4.60030,2470.483,2022-1-17T11:37:27Z
2022-01-17T09:38:59Z,42.805,6.029,13.3005,4.60029,2470.483,2022-1-17T11:40:30Z
2022-01-17T09:42:02Z,42.805,6.029,13.3004,4.60029,2470.507,2022-1-17T11:43:34Z
2022-01-17T09:45:06Z,42.805,6.029,13.3000,4.60029,2470.483,2022-1-17T11:46:37Z
2022-01-17T09:48:09Z,42.805,6.029,13.3000,4.60029,2470.483,2022-1-17T11:49:40Z
2022-01-17T09:51:12Z,42.805,6.029,13.3003,4.60029,2470.507,2022-1-17T11:52:43Z
2022-01-17T09:54:15Z,42.805,6.029,13.3004,4.60029,2470.52,2022-1-17T11:55:46Z
2022-01-17T09:57:18Z,42.805,6.029,13.3001,4.60029,2470.483,2022-1-17T11:58:49Z
2022-01-17T10:00:21Z,42.805,6.029,13.3002,4.60029,2470.483,2022-1-17T12:01:52Z
2022-01-17T10:03:24Z,42.805,6.029,13.3004,4.60029,2470.47,2022-1-17T12:04:56Z
2022-01-17T10:06:27Z,42.805,6.029,13.3004,4.60029,2470.52,2022-1-17T12:07:59Z
2022-01-17T10:09:31Z,42.805,6.029,13.3000,4.60029,2470.497,2022-1-17T12:11:02Z
2022-01-17T10:12:34Z,42.805,6.029,13.3001,4.60029,2470.437,2022-1-17T12:14:05Z
2022-01-17T10:15:37Z,42.805,6.029,13.3004,4.60029,2470.474,2022-1-17T12:17:08Z
2022-01-17T10:18:40Z,42.805,6.029,13.3001,4.60028,2470.474,2022-1-17T12:20:11Z
2022-01-17T10:21:43Z,42.805,6.029,13.3004,4.60029,2470.483,2022-1-17T12:23:14Z
2022-01-17T10:24:46Z,42.805,6.029,13.3004,4.60029,2470.497,2022-1-17T12:26:17Z
2022-01-17T10:27:49Z,42.805,6.029,13.3002,4.60029,2470.497,2022-1-17T12:29:21Z
2022-01-17T10:30:52Z,42.805,6.029,13.3002,4.60028,2470.52,2022-1-17T12:32:24Z
2022-01-17T10:33:56Z,42.805,6.029,13.3002,4.60029,2470.474,2022-1-17T12:35:27Z
2022-01-17T10:36:59Z,42.805,6.029,13.2998,4.60030,2470.483,2022-1-17T12:38:30Z
2022-01-17T10:40:02Z,42.805,6.029,13.3003,4.60029,2470.46,2022-1-17T12:41:33Z
2022-01-17T10:43:05Z,42.805,6.029,13.3004,4.60031,2470.474,2022-1-17T12:44:36Z
2022-01-17T10:46:08Z,42.805,6.029,13.3003,4.60030,2470.474,2022-1-17T12:47:39Z
2022-01-17T10:49:11Z,42.805,6.029,13.3004,4.60031,2470.413,2022-1-17T12:50:42Z
2022-01-17T10:52:14Z,42.805,6.029,13.3006,4.60029,2470.413,2022-1-17T12:53:46Z
2022-01-17T10:55:18Z,42.805,6.029,13.3006,4.60031,2470.437,2022-1-17T12:56:49Z
2022-01-17T10:58:21Z,42.805,6.029,13.3003,4.60031,2470.437,2022-1-17T12:59:52Z
2022-01-17T11:01:24Z,42.805,6.029,13.3008,4.60031,2470.46,2022-1-17T13:02:55Z
2022-01-17T11:04:27Z,42.805,6.029,13.3004,4.60032,2470.46,2022-1-17T13:05:58Z
2022-01-17T11:07:30Z,42.805,6.029,13.3002,4.60032,2470.474,2022-1-17T13:09:01Z
2022-01-17T11:10:33Z,42.805,6.029,13.3006,4.60031,2470.437,2022-1-17T13:12:04Z
2022-01-17T11:13:36Z,42.805,6.029,13.3002,4.60031,2470.437,2022-1-17T13:15:07Z
2022-01-17T11:16:39Z,42.805,6.029,13.3004,4.60031,2470.413,2022-1-17T13:18:11Z
2022-01-17T11:19:43Z,42.805,6.029,13.3004,4.60031,2470.404,2022-1-17T13:21:14Z
2022-01-17T11:22:46Z,42.805,6.029,13.3005,4.60031,2470.39,2022-1-17T13:24:17Z
2022-01-17T11:25:49Z,42.805,6.029,13.3002,4.60029,2470.39,2022-1-17T13:27:20Z
2022-01-17T11:28:52Z,42.805,6.029,13.2999,4.60029,2470.38,2022-1-17T13:30:23Z
2022-01-17T11:31:55Z,42.805,6.029,13.3004,4.60031,2470.413,2022-1-17T13:33:26Z
2022-01-17T11:34:58Z,42.805,6.029,13.3003,4.60029,2470.404,2022-1-17T13:36:29Z
2022-01-17T11:38:01Z,42.805,6.029,13.3002,4.60030,2470.413,2022-1-17T13:39:32Z
2022-01-17T11:41:04Z,42.805,6.029,13.3001,4.60029,2470.366,2022-1-17T13:42:36Z
2022-01-17T11:44:08Z,42.805,6.029,13.3003,4.60029,2470.366,2022-1-17T13:45:39Z
2022-01-17T11:47:11Z,42.805,6.029,13.3000,4.60028,2470.399,2022-1-17T13:48:42Z
2022-01-17T11:50:14Z,42.805,6.029,13.3000,4.60029,2470.39,2022-1-17T13:51:45Z
2022-01-17T11:53:17Z,42.805,6.029,13.3000,4.60027,2470.404,2022-1-17T13:54:48Z
2022-01-17T11:56:20Z,42.805,6.029,13.3003,4.60029,2470.427,2022-1-17T13:57:51Z
2022-01-17T11:59:23Z,42.805,6.029,13.3004,4.60029,2470.427,2022-1-17T14:00:54Z
2022-01-17T12:02:26Z,42.805,6.029,13.3006,4.60029,2470.366,2022-1-17T14:03:58Z
2022-01-17T12:05:29Z,42.805,6.029,13.3001,4.60029,2470.366,2022-1-17T14:07:01Z
2022-01-17T12:08:33Z,42.805,6.029,13.3002,4.60028,2470.334,2022-1-17T14:10:04Z
2022-01-17T12:11:36Z,42.805,6.029,13.3000,4.60029,2470.366,2022-1-17T14:13:07Z
2022-01-17T12:14:39Z,42.805,6.029,13.3004,4.60029,2470.334,2022-1-17T14:16:10Z
2022-01-17T12:17:42Z,42.805,6.029,13.3000,4.60027,2470.366,2022-1-17T14:19:13Z
2022-01-17T12:20:45Z,42.805,6.029,13.3004,4.60029,2470.38,2022-1-17T14:22:16Z
2022-01-17T12:23:48Z,42.805,6.029,13.3001,4.60030,2470.357,2022-1-17T14:25:19Z
2022-01-17T12:26:51Z,42.805,6.029,13.3004,4.60029,2470.343,2022-1-17T14:28:23Z
2022-01-17T12:29:54Z,42.805,6.029,13.3005,4.60028,2470.38,2022-1-17T14:31:26Z
2022-01-17T12:32:58Z,42.805,6.029,13.2996,4.60026,2470.334,2022-1-17T14:34:29Z
2022-01-17T12:36:01Z,42.805,6.029,13.3002,4.60029,2470.32,2022-1-17T14:37:32Z
2022-01-17T12:39:04Z,42.805,6.029,13.3001,4.60026,2470.32,2022-1-17T14:40:35Z
2022-01-17T12:42:07Z,42.805,6.029,13.2999,4.60027,2470.32,2022-1-17T14:43:38Z
2022-01-17T12:45:10Z,42.805,6.029,13.3000,4.60027,2470.343,2022-1-17T14:46:41Z
2022-01-17T12:48:13Z,42.805,6.029,13.3000,4.60029,2470.343,2022-1-17T14:49:44Z
2022-01-17T12:51:16Z,42.805,6.029,13.3000,4.60030,2470.334,2022-1-17T14:52:48Z
2022-01-17T12:54:20Z,42.805,6.029,13.3004,4.60028,2470.343,2022-1-17T14:55:51Z
2022-01-17T12:57:23Z,42.805,6.029,13.3000,4.60026,2470.297,2022-1-17T14:58:54Z
2022-01-17T13:00:26Z,42.805,6.029,13.3001,4.60029,2470.343,2022-1-17T15:01:57Z
2022-01-17T13:03:29Z,42.805,6.029,13.3002,4.60029,2470.343,2022-1-17T15:05:00Z
2022-01-17T13:06:32Z,42.805,6.029,13.3000,4.60028,2470.334,2022-1-17T15:08:03Z
2022-01-17T13:09:35Z,42.805,6.029,13.3000,4.60027,2470.343,2022-1-17T15:11:06Z
2022-01-17T13:12:38Z,42.805,6.029,13.3001,4.60027,2470.366,2022-1-17T15:14:09Z
2022-01-17T13:15:41Z,42.805,6.029,13.2999,4.60028,2470.343,2022-1-17T15:17:13Z
2022-01-17T13:18:45Z,42.805,6.029,13.3000,4.60027,2470.32,2022-1-17T15:20:16Z
2022-01-17T13:21:48Z,42.805,6.029,13.2998,4.60026,2470.334,2022-1-17T15:23:19Z
2022-01-17T13:24:51Z,42.805,6.029,13.3001,4.60027,2470.31,2022-1-17T15:26:22Z
2022-01-17T13:27:54Z,42.805,6.029,13.3000,4.60031,2470.31,2022-1-17T15:29:25Z
2022-01-17T13:30:57Z,42.805,6.029,13.3003,4.60026,2470.297,2022-1-17T15:32:28Z
2022-01-17T13:34:00Z,42.805,6.029,13.3005,4.60026,2470.31,2022-1-17T15:35:31Z
2022-01-17T13:37:03Z,42.805,6.029,13.2999,4.60027,2470.297,2022-1-17T15:38:35Z
2022-01-17T13:40:06Z,42.805,6.029,13.3000,4.60027,2470.273,2022-1-17T15:41:38Z
2022-01-17T13:43:10Z,42.805,6.029,13.3004,4.60026,2470.273,2022-1-17T15:44:41Z
2022-01-17T13:46:13Z,42.805,6.029,13.2999,4.60027,2470.32,2022-1-17T15:47:44Z
2022-01-17T13:49:16Z,42.805,6.029,13.3001,4.60026,2470.31,2022-1-17T15:50:47Z
2022-01-17T13:52:19Z,42.805,6.029,13.3000,4.60027,2470.287,2022-1-17T15:53:50Z
2022-01-17T13:55:22Z,42.805,6.029,13.3004,4.60026,2470.273,2022-1-17T15:56:53Z
2022-01-17T13:58:25Z,42.805,6.029,13.2998,4.60027,2470.273,2022-1-17T15:59:56Z
2022-01-17T14:01:28Z,42.805,6.029,13.3005,4.60027,2470.297,2022-1-17T16:03:00Z
2022-01-17T14:04:31Z,42.805,6.029,13.3000,4.60026,2470.25,2022-1-17T16:06:03Z
2022-01-17T14:07:35Z,42.805,6.029,13.2998,4.60026,2470.297,2022-1-17T16:09:06Z
2022-01-17T14:10:38Z,42.805,6.029,13.3000,4.60028,2470.31,2022-1-17T16:12:09Z
2022-01-17T14:13:41Z,42.805,6.029,13.3002,4.60026,2470.25,2022-1-17T16:15:12Z
2022-01-17T14:16:44Z,42.805,6.029,13.2998,4.60026,2470.31,2022-1-17T16:18:15Z
2022-01-17T14:19:47Z,42.805,6.029,13.3001,4.60026,2470.287,2022-1-17T16:21:18Z
2022-01-17T14:22:50Z,42.805,6.029,13.3001,4.60026,2470.31,2022-1-17T16:24:21Z
2022-01-17T14:25:53Z,42.805,6.029,13.3000,4.60029,2470.31,2022-1-17T16:27:25Z
2022-01-17T14:28:57Z,42.805,6.029,13.3002,4.60026,2470.287,2022-1-17T16:30:28Z
2022-01-17T14:32:00Z,42.805,6.029,13.3002,4.60026,2470.273,2022-1-17T16:33:31Z
2022-01-17T14:35:03Z,42.805,6.029,13.3004,4.60026,2470.25,2022-1-17T16:36:34Z
2022-01-17T14:38:06Z,42.805,6.029,13.3003,4.60026,2470.273,2022-1-17T16:39:37Z
2022-01-17T14:41:09Z,42.805,6.029,13.3002,4.60026,2470.287,2022-1-17T16:42:40Z
2022-01-17T14:44:12Z,42.805,6.029,13.3000,4.60028,2470.273,2022-1-17T16:45:43Z
2022-01-17T14:47:15Z,42.805,6.029,13.3000,4.60026,2470.254,2022-1-17T16:48:46Z
2022-01-17T14:50:18Z,42.805,6.029,13.2997,4.60025,2470.273,2022-1-17T16:51:50Z
2022-01-17T14:53:22Z,42.805,6.029,13.2997,4.60026,2470.273,2022-1-17T16:54:53Z
2022-01-17T14:56:25Z,42.805,6.029,13.3001,4.60027,2470.273,2022-1-17T16:57:56Z
2022-01-17T14:59:28Z,42.805,6.029,13.3001,4.60026,2470.31,2022-1-17T17:00:59Z
2022-01-17T15:02:31Z,42.805,6.029,13.3000,4.60025,2470.227,2022-1-17T17:04:02Z
2022-01-17T15:05:34Z,42.805,6.029,13.3001,4.60025,2470.25,2022-1-17T17:07:05Z
2022-01-17T15:08:37Z,42.805,6.029,13.2998,4.60024,2470.287,2022-1-17T17:10:08Z
2022-01-17T15:11:40Z,42.805,6.029,13.3002,4.60025,2470.287,2022-1-17T17:13:11Z